Forside
METAR-TAF:

METAR-TAF

Lufthavne :

Schoolcraft County Airport

Manistique, Michigan, USA

Breddekreds: 45-58-29N, længdekreds: 086-10-19W, højde: 209 m

Aktuelle vejr

Denne rapport blev lavet for 11 minutter siden, kl. 23:35 UTC
Vind 8 kt fra nordnordvest med vindstød på up til 15 kt
Temperatur 20°C
Fugtighed 56%
Tryk 1019 hPa
Sigt: 16.1 km
skyfri

METAR: KISQ 012335Z AUTO 33008G15KT 10SM CLR 20/11 A3010 RMK AO2 T01950114

Tid: 19:46 (23:46 UTC)


TAF: fraværende

Vejrobservationer og prognoser fra mere end 4000 lufthavne (METAR og TAF).

De gule og røde prikker repræsenterer de meteorologiske stationer.

Flyt musen over at se navnet på stationen.

Så klik over at se vejr observationer og prognoser.

At skifte det kort: Klik på de grønne knapper med et sort kors for at zoome ind; på den grønne knap med en bindestreg for at zoome ud; eller på de grønne pile for tilstødende kort.


METAR-TAF: